Weather History for Driggs, ID

Change the Weather History Date:

Sunday, September 8, 2013

  Actual Average (KRXE) Record (KRXE)
Temperature  
Mean Temperature 61 °F 59 °F  
Max Temperature 72 °F 75 °F 87 °F (2005)
Min Temperature 50 °F 42 °F 30 °F (2001)
Degree Days  
Heating Degree Days 4 7  
Month to date heating degree days 44  
Since 1 July heating degree days 117  
Cooling Degree Days 0 0  
Month to date cooling degree days 5  
Year to date cooling degree days 207  
Growing Degree Days 11 (Base 50)    
Moisture  
Dew Point 48 °F    
Average Humidity 73    
Maximum Humidity 96    
Minimum Humidity 40    
Precipitation  
Precipitation 0.17 in 0.03 in 0.21 in (2006)
Month to date precipitation 0.24  
Year to date precipitation 9.16  
Sea Level Pressure  
Sea Level Pressure 29.99 in    
Wind  
Wind Speed 7 mph (ESE)    
Max Wind Speed 30 mph    
Max Gust Speed 43 mph    
Visibility 8 miles    
Events Rain , Thunderstorm    
T = Trace of Precipitation, MM = Missing Value Source: NWS Daily Summary

Daily Weather History Graph

Daily Weather History Graph

Search for Another Location

Airport:

Trip Planner

Search our weather history database for the weather conditions in past years. The results will help you decide how hot, cold, wet, or windy it might be!

Date:

Astronomy

Sep. 08, 2013 Rise Set
Actual Time 6:56 AM MDT 7:46 PM MDT
Civil Twilight 6:27 AM MDT 8:15 PM MDT
Nautical Twilight 5:52 AM MDT 8:50 PM MDT
Astronomical Twilight 5:16 AM MDT 9:26 PM MDT
Moon 10:25 AM MDT (9/8) 9:15 PM MDT (9/8)
Length of Visible Light 13h 48m
Length of Day
12h 50m
Waxing Crescent, 11% of the Moon is Illuminated
Sep 8
Waxing Crescent
Sep 12
First Quarter
Sep 19
Full
Sep 26
Last Quarter
Oct 4
New

Hourly Weather History & Observations

Time (MDT) Temp. Dew Point Humidity Pressure Visibility Wind Dir Wind Speed Gust Speed Precip Events Conditions
12:56 AM 52.9 °F 47.8 °F 83% 29.97 in 9.0 mi ENE 5.8 mph - N/A   Clear
1:56 AM 54.9 °F 47.8 °F 77% 29.96 in 10.0 mi East 6.9 mph - N/A   Clear
2:56 AM 54.9 °F 48.9 °F 80% 29.95 in 10.0 mi ENE 6.9 mph - N/A   Overcast
3:56 AM 54.9 °F 50.0 °F 84% 29.96 in 10.0 mi South 4.6 mph - N/A   Overcast
4:56 AM 52.9 °F 47.8 °F 83% 29.96 in 10.0 mi East 6.9 mph - N/A   Scattered Clouds
5:56 AM 52.0 °F 48.9 °F 89% 29.96 in 9.0 mi Calm Calm - N/A   Clear
6:56 AM 50.0 °F 46.9 °F 89% 29.99 in 9.0 mi ENE 6.9 mph - N/A   Partly Cloudy
7:56 AM 52.0 °F 47.8 °F 86% 30.00 in 10.0 mi Calm Calm - N/A   Clear
8:56 AM 54.9 °F 48.9 °F 80% 30.00 in 8.0 mi Calm Calm - N/A   Clear
9:56 AM 56.8 °F 47.8 °F 72% 30.01 in 9.0 mi Calm Calm - N/A   Clear
10:56 AM 61.9 °F 48.9 °F 62% 29.99 in 9.0 mi Calm Calm - N/A   Scattered Clouds
11:56 AM 63.9 °F 50.0 °F 61% 29.98 in 9.0 mi Calm Calm - N/A   Partly Cloudy
12:56 PM 66.9 °F 50.0 °F 54% 29.95 in 9.0 mi SSW 6.9 mph - N/A   Partly Cloudy
1:56 PM 68.9 °F 48.9 °F 49% 29.91 in 9.0 mi Variable 3.5 mph - N/A   Scattered Clouds
2:56 PM 72.0 °F 46.9 °F 41% 29.87 in 8.0 mi SSW 9.2 mph 17.3 mph N/A   Partly Cloudy
3:56 PM 68.9 °F 48.9 °F 49% 29.87 in 8.0 mi SW 9.2 mph - N/A   Scattered Clouds
4:56 PM 68.0 °F 43.0 °F 40% 29.86 in 9.0 mi SW 8.1 mph - N/A   Clear
5:56 PM 65.8 °F 46.9 °F 50% 29.87 in 9.0 mi South 9.2 mph - N/A   Clear
6:56 PM 63.0 °F 47.8 °F 58% 29.87 in 10.0 mi SW 6.9 mph - N/A   Partly Cloudy
7:07 PM 64.4 °F 48.2 °F 56% 30.08 in 10.0 mi SW 6.9 mph - N/A Thunderstorm Scattered Clouds
7:19 PM 60.8 °F 46.4 °F 59% 30.15 in 4.0 mi NW 29.9 mph 42.6 mph 0.01 in Rain , Thunderstorm Light Thunderstorms and Rain
7:21 PM 57.2 °F 46.4 °F 67% 30.16 in 1.8 mi NNW 21.9 mph 42.6 mph 0.05 in Rain Heavy Rain
7:23 PM 55.4 °F 46.4 °F 72% 30.16 in 1.0 mi NNW 18.4 mph 40.3 mph 0.08 in Rain Heavy Rain
7:25 PM 53.6 °F 48.2 °F 82% 30.16 in 0.8 mi NNW 12.7 mph 40.3 mph 0.10 in Rain , Thunderstorm Heavy Thunderstorms and Rain
7:33 PM 51.8 °F 48.2 °F 88% 30.16 in 1.2 mi NNE 8.1 mph - 0.12 in Rain , Thunderstorm Thunderstorms and Rain
7:38 PM 51.8 °F 48.2 °F 88% 30.17 in 2.0 mi NNE 6.9 mph - 0.13 in Rain Light Rain
7:56 PM 52.0 °F 48.9 °F 89% 29.95 in 2.5 mi East 20.7 mph - 0.17 in Rain , Thunderstorm Light Thunderstorms and Rain
8:00 PM 51.8 °F 48.2 °F 88% 30.10 in 3.0 mi East 20.7 mph - 0.00 in Rain , Thunderstorm Light Thunderstorms and Rain
8:07 PM 53.6 °F 48.2 °F 82% 30.09 in 8.0 mi ESE 21.9 mph 26.5 mph 0.00 in Rain Light Rain
8:56 PM 54.0 °F 48.9 °F 83% 29.92 in 10.0 mi NNW 5.8 mph - 0.00 in   Mostly Cloudy
9:56 PM 52.0 °F 50.0 °F 93% 29.91 in 10.0 mi NE 3.5 mph - N/A   Scattered Clouds
10:56 PM 52.0 °F 50.9 °F 96% 29.88 in 10.0 mi South 4.6 mph - N/A   Mostly Cloudy
11:56 PM 50.9 °F 47.8 °F 89% 29.87 in 10.0 mi South 8.1 mph - N/A   Clear